This is the latest recevied weather packets stored in our database for station/object KD7ECD. If no packets are shown the sender has not sent any weather packets the latest 10 day(s).
| Time | Temp. | Humidity | Pressure | Rain* | Wind** | Luminosity | Snow |
|---|---|---|---|---|---|---|---|
| 1777777760 | 12.22° C | 87% | 1013.5 hPa | 0 mm | - | 0 W/m² | - |
| 1777777159 | 12.22° C | 86% | 1013.3 hPa | 0 mm | - | 0 W/m² | - |
| 1777776560 | 12.22° C | 86% | 1013.7 hPa | 0 mm | - | 4 W/m² | - |
| 1777775959 | 12.78° C | 85% | 1013.3 hPa | 0 mm | - | 13 W/m² | - |
| 1777775359 | 12.78° C | 84% | 1013.2 hPa | 0 mm | - | 22 W/m² | - |
| 1777774756 | 13.33° C | 83% | 1013.4 hPa | 0 mm | - | 31 W/m² | - |
| 1777774155 | 13.33° C | 82% | 1013.3 hPa | 0 mm | - | 44 W/m² | - |
| 1777773555 | 13.89° C | 81% | 1013.1 hPa | 0 mm | - | 59 W/m² | - |
| 1777772954 | 13.89° C | 81% | 1013.3 hPa | 0 mm | - | 70 W/m² | - |
| 1777772349 | 14.44° C | 80% | 1013.3 hPa | 0 mm | - | 83 W/m² | - |
| 1777771749 | 15° C | 79% | 1013.2 hPa | 0 mm | - | 98 W/m² | - |
| 1777771149 | 15.56° C | 78% | 1013.3 hPa | 0 mm | - | 100 W/m² | - |
| 1777770549 | 15.56° C | 78% | 1013.2 hPa | 0 mm | - | 128 W/m² | - |
| 1777769949 | 16.11° C | 77% | 1013.3 hPa | 0 mm | - | 140 W/m² | - |
| 1777769348 | 16.67° C | 75% | 1013.2 hPa | 0 mm | - | 157 W/m² | - |
| 1777768743 | 16.67° C | 74% | 1013.3 hPa | 0 mm | - | 169 W/m² | - |
| 1777768142 | 17.22° C | 72% | 1013.5 hPa | 0 mm | - | 175 W/m² | - |
| 1777767542 | 17.78° C | 70% | 1013.1 hPa | 0 mm | - | 216 W/m² | - |
| 1777766936 | 17.22° C | 72% | 1013.3 hPa | 0 mm | - | 255 W/m² | - |
| 1777766336 | 18.33° C | 69% | 1013.5 hPa | 0 mm | - | 306 W/m² | - |
| 1777765736 | 17.78° C | 70% | 1013.4 hPa | 0 mm | - | 339 W/m² | - |
| 1777765135 | 17.78° C | 70% | 1013.2 hPa | 0 mm | - | 367 W/m² | - |
| 1777764534 | 18.33° C | 69% | 1013.7 hPa | 0 mm | - | 430 W/m² | - |
| 1777763933 | 17.78° C | 70% | 1013.7 hPa | 0 mm | - | 409 W/m² | - |
| 1777763329 | 17.78° C | 71% | 1013.7 hPa | 0 mm | - | 304 W/m² | - |
* Rain latest hour (hover to see other rain measurements)
** Current wind speed in m/s (hover to see current wind gust speed)